Regional Weather Roundup
Issued by NWS Cleveland, OH

Home | Current Version | Previous Version | Text Only | Print | Product List | Glossary Off
Versions: 1 2 3 4 5 6 7 8 9 10 11 12 13 14 15 16 17 18 19 20 21 22 23 24 25 26 27 28 29 30 31 32 33 34 35 36 37 38 39 40 41 42 43 44 45 46 47 48 49 50

217
ASUS41 KCLE 041712
RWRCLE
OHIO REGIONAL WEATHER ROUNDUP
NATIONAL WEATHER SERVICE WILMINGTON, OH
1200 PM EST SUN DEC 04 2016

NOTE: "FAIR" INDICATES FEW OR NO CLOUDS BELOW 12,000 FEET WITH NO
SIGNIFICANT WEATHER AND/OR OBSTRUCTIONS TO VISIBILITY.

OHZ001>008-015>018-024>027-034-035-043-044-041800-
   NORTHWEST OHIO

CITY           SKY/WX    TMP DP  RH WIND       PRES   REMARKS
DEFIANCE       PTSUNNY   39  29  67 E9        30.11F
FINDLAY        FAIR      39  28  64 SE10      30.12F
TOLEDO EXPRESS PTSUNNY   37  29  72 SE6       30.14F
TOLEDO EXEC    FAIR      39  29  67 SE9       30.15F
LIMA           PTSUNNY   38  31  76 SE10      30.10F
$$

OHZ009>014-019>023-028>033-038-089-041800-
   NORTHEAST OHIO

CITY           SKY/WX    TMP DP  RH WIND       PRES   REMARKS
CLE-HOPKINS    CLOUDY    40  25  55 SE7       30.20F
CLE-LAKEFRONT  FAIR      41  25  53 S9        30.18F
CUY CO. ARPT   PTSUNNY   41  30  65 S8        30.20F
LORAIN-ELYRIA  FAIR      38  25  59 SE9       30.18F
ASHTABULA      FAIR      39  29  67 S6        30.20F
AKRON-CANTON   CLOUDY    38  25  59 SE9       30.17F
WOOSTER        FAIR      36  26  67 SE10      30.16F
MANSFIELD      FAIR      36  26  67 SE8       30.14F
YOUNGSTOWN     PTSUNNY   38  27  64 SE8       30.19F
$$

OHZ042-051>053-060>062-070>072-077>081-041800-
  SOUTHWEST OHIO

CITY           SKY/WX    TMP DP  RH WIND       PRES   REMARKS
CINC-COVINGTON CLOUDY    42  30  62 E13       30.05F
CINC-LUNKEN    FAIR      43  31  62 SE8       30.09F
HAMILTON       CLOUDY    42  28  57 E10       30.09F
DAYTON         CLOUDY    38  28  67 SE14      30.09F
WRIGHT-PAT AFB PTSUNNY   39  30  68 E9        30.10F
DAYTON GENERAL CLOUDY    39  28  64 SE9       30.09F
WILMINGTON     CLOUDY    38  30  73 SE13      30.10F
$$

OHZ036-037-039>041-045>050-054>059-063>069-073>076-082>088-041800-
  CENTRAL AND SOUTHEAST OHIO

CITY           SKY/WX    TMP DP  RH WIND       PRES   REMARKS
COLUMBUS       PTSUNNY   39  29  67 SE12      30.14F
OSU AIRPORT    CLOUDY    39  28  64 SE9       30.15F
BOLTON FIELD   CLOUDY    39  28  65 SE7       30.16F
RICKENBACK AFB CLOUDY    39  29  66 SE8       30.15F
NEWARK         FAIR      40  27  59 SE6       30.15F
MARION         FAIR      38  27  64 SE12      30.14F
LANCASTER      PTSUNNY   40  29  64 E13       30.15F
ZANESVILLE     FAIR      39  26  59 E9        30.16F
NEW PHILLY     FAIR      39  28  64 E7        30.19F
$$




USA.gov is the U.S. government's official web portal to all federal, state and local government web resources and services.